QPF
0.00 0.00 0.00 0.00 0.00 0.00 0.00 0.00 0.00 0.00 0.00 0.00 0.00 0.00 0.00 0.00 0.00 0.00 0.00 0.00 0.00 0.00 0.00 0.00 0.00 0.00 0.00 0.00 0.00 0.00 0.00 0.00 0.00 0.00 0.00 0.00 0.00 0.00 0.00 0.00 0.00 0.00 0.00
0.00 0.00 0.00 0.00 0.00 0.00 0.00 0.00 0.00 0.00 0.00 0.00 0.00 0.00 0.00 0.00 0.00 0.00 0.00 0.00 0.00 0.00 0.00 0.00 0.00 0.00 0.00 0.00 0.00 0.00 0.00 0.00 0.00 0.00 0.00 0.00 0.00 0.00 0.00 0.00 0.00 0.00 0.00
0.00 0.00 0.00 0.00 0.00 0.00 0.00 0.00 0.00 0.00 0.00 0.00 0.00 0.00 0.00 0.00 0.00 0.00 0.00 0.00 0.00 0.00 0.00 0.00 0.00 0.00 0.00 0.00 0.00 0.00 0.00 0.00 0.00 0.00 0.00 0.00 0.00 0.00 0.00 0.00 0.00 0.00 0.00
0.00 0.00 0.00 0.00 0.00 0.00 0.00 0.00 0.00 0.00 0.00 0.00 0.00 0.00 0.00 0.00 0.00 0.00 0.00 0.00 0.00 0.00 0.00 0.00 0.00 0.00 0.00 0.00 0.00 0.00 0.00 0.00 0.00 0.00 0.00 0.00 0.00 0.00 0.00 0.00 0.00 0.00 0.00
0.00 0.00 0.00 0.00 0.00 0.00 0.00 0.00 0.00 0.00 0.00 0.00 0.00 0.00 0.00 0.00 0.00 0.00 0.00 0.00 0.00 0.00 0.00 0.00 0.00 0.00 0.00 0.00 0.00 0.00 0.00 0.00 0.00 0.00 0.00 0.00 0.00 0.00 0.00 0.00 0.00 0.00 0.00
0.00 0.00 0.00 0.00 0.00 0.00 0.00 0.00 0.00 0.00 0.00 0.00 0.00 0.00 0.00 0.00 0.00 0.00 0.00 0.00 0.00 0.00 0.00 0.00 0.00 0.00 0.00 0.00 0.00 0.00 0.00 0.00 0.00 0.01 0.00 0.00 0.00 0.00 0.00 0.00 0.00 0.00 0.00
0.00 0.00 0.00 0.00 0.00 0.00 0.00 0.00 0.00 0.00 0.00 0.00 0.00 0.00 0.00 0.00 0.00 0.00 0.00 0.00 0.00 0.00 0.00 0.00 0.00 0.00 0.00 0.00 0.00 0.00 0.00 0.00 0.00 0.00 0.00 0.00 0.00 0.00 0.01 0.01 0.01 0.01 0.00
0.00 0.00 0.00 0.00 0.00 0.00 0.00 0.00 0.00 0.00 0.00 0.00 0.00 0.00 0.00 0.00 0.00 0.00 0.00 0.00 0.00 0.00 0.00 0.00 0.00 0.00 0.00 0.00 0.00 0.00 0.00 0.00 0.00 0.00 0.00 0.00 0.00 0.00 0.01 0.01 0.01 0.01 0.00
0.00 0.00 0.00 0.00 0.00 0.00 0.00 0.00 0.00 0.00 0.00 0.00 0.00 0.00 0.00 0.00 0.00 0.00 0.00 0.00 0.00 0.00 0.00 0.00 0.00 0.00 0.00 0.00 0.00 0.00 0.00 0.00 0.00 0.00 0.00 0.00 0.00 0.01 0.01 0.01 0.01 0.01 0.00
0.00 0.00 0.00 0.00 0.00 0.00 0.00 0.00 0.00 0.00 0.00 0.00 0.00 0.00 0.00 0.00 0.00 0.00 0.00 0.00 0.00 0.00 0.00 0.00 0.00 0.00 0.00 0.00 0.00 0.00 0.00 0.00 0.00 0.00 0.00 0.00 0.00 0.00 0.00 0.01 0.01 0.01 0.01
0.00 0.00 0.00 0.00 0.00 0.00 0.00 0.00 0.00 0.00 0.00 0.00 0.00 0.00 0.00 0.00 0.00 0.00 0.00 0.00 0.00 0.00 0.00 0.00 0.00 0.00 0.00 0.00 0.00 0.00 0.00 0.00 0.00 0.00 0.00 0.00 0.00 0.01 0.01 0.01 0.00 0.00 0.00
0.00 0.00 0.00 0.00 0.00 0.00 0.00 0.00 0.00 0.00 0.00 0.00 0.00 0.00 0.00 0.00 0.00 0.00 0.00 0.00 0.00 0.00 0.00 0.00 0.00 0.00 0.00 0.00 0.00 0.00 0.00 0.00 0.00 0.00 0.01 0.01 0.01 0.01 0.01 0.01 0.01 0.01 0.00
0.00 0.00 0.00 0.00 0.00 0.00 0.00 0.00 0.00 0.00 0.00 0.00 0.00 0.00 0.00 0.00 0.00 0.00 0.00 0.00 0.00 0.00 0.00 0.00 0.00 0.00 0.00 0.00 0.00 0.00 0.00 0.00 0.00 0.00 0.01 0.01 0.01 0.01 0.00 0.00 0.00 0.00 0.00
0.00 0.00 0.00 0.00 0.00 0.00 0.00 0.00 0.00 0.00 0.00 0.00 0.00 0.00 0.00 0.00 0.00 0.00 0.00 0.00 0.00 0.00 0.00 0.00 0.00 0.00 0.00 0.00 0.00 0.00 0.00 0.00 0.00 0.00 0.01 0.01 0.00 0.00 0.00 0.00 0.00 0.00 0.00
0.00 0.00 0.00 0.00 0.00 0.00 0.00 0.00 0.00 0.00 0.00 0.00 0.00 0.00 0.00 0.00 0.00 0.00 0.00 0.00 0.00 0.00 0.00 0.00 0.00 0.00 0.00 0.00 0.00 0.00 0.00 0.00 0.00 0.00 0.00 0.00 0.00 0.00 0.00 0.00 0.00 0.00 0.00
0.00 0.00 0.00 0.00 0.00 0.00 0.00 0.00 0.00 0.00 0.00 0.00 0.00 0.00 0.00 0.00 0.00 0.00 0.00 0.00 0.00 0.00 0.00 0.00 0.00 0.00 0.00 0.00 0.00 0.00 0.00 0.00 0.00 0.00 0.00 0.00 0.00 0.00 0.00 0.00 0.00 0.00 0.00
0.00 0.00 0.00 0.00 0.00 0.00 0.00 0.00 0.00 0.00 0.00 0.00 0.00 0.00 0.00 0.00 0.00 0.00 0.00 0.00 0.00 0.00 0.00 0.00 0.00 0.00 0.00 0.00 0.00 0.00 0.00 0.00 0.00 0.00 0.00 0.00 0.00 0.00 0.00 0.00 0.00 0.00 0.00
0.00 0.00 0.00 0.00 0.00 0.00 0.00 0.00 0.00 0.00 0.00 0.00 0.00 0.00 0.00 0.00 0.00 0.00 0.00 0.00 0.00 0.00 0.00 0.00 0.00 0.00 0.00 0.00 0.00 0.00 0.00 0.00 0.00 0.00 0.00 0.00 0.00 0.00 0.00 0.00 0.00 0.00 0.00
0.00 0.00 0.00 0.00 0.00 0.00 0.00 0.00 0.00 0.00 0.00 0.00 0.00 0.00 0.00 0.00 0.00 0.00 0.00 0.00 0.00 0.00 0.00 0.00 0.00 0.00 0.00 0.00 0.00 0.00 0.00 0.00 0.00 0.00 0.00 0.00 0.00 0.00 0.00 0.00 0.00 0.00 0.00
0.00 0.00 0.00 0.00 0.00 0.00 0.00 0.00 0.00 0.00 0.00 0.00 0.00 0.00 0.00 0.00 0.00 0.00 0.00 0.00 0.00 0.00 0.00 0.00 0.00 0.00 0.00 0.00 0.00 0.00 0.00 0.00 0.00 0.00 0.00 0.00 0.00 0.00 0.00 0.00 0.00 0.00 0.00
0.00 0.00 0.00 0.00 0.00 0.00 0.00 0.00 0.00 0.00 0.00 0.00 0.00 0.00 0.00 0.00 0.00 0.00 0.00 0.00 0.00 0.00 0.00 0.00 0.00 0.00 0.00 0.00 0.00 0.00 0.00 0.00 0.00 0.00 0.00 0.00 0.00 0.00 0.00 0.00 0.00 0.00 0.00
0.00 0.00 0.00 0.00 0.00 0.00 0.00 0.00 0.00 0.00 0.00 0.00 0.00 0.00 0.00 0.00 0.00 0.00 0.00 0.00 0.00 0.00 0.00 0.00 0.00 0.00 0.00 0.00 0.00 0.00 0.00 0.00 0.00 0.00 0.00 0.00 0.00 0.00 0.00 0.00 0.00 0.00 0.00
0.00 0.00 0.00 0.00 0.00 0.00 0.00 0.00 0.00 0.00 0.00 0.00 0.00 0.00 0.00 0.00 0.00 0.00 0.00 0.00 0.00 0.00 0.00 0.00 0.00 0.00 0.00 0.00 0.00 0.00 0.00 0.00 0.00 0.00 0.00 0.00 0.00 0.00 0.00 0.00 0.00 0.00 0.00
0.00 0.00 0.00 0.00 0.00 0.00 0.00 0.00 0.00 0.00 0.00 0.00 0.00 0.00 0.00 0.00 0.00 0.00 0.00 0.00 0.00 0.00 0.00 0.00 0.00 0.00 0.00 0.00 0.00 0.00 0.00 0.00 0.00 0.00 0.00 0.00 0.00 0.00 0.00 0.00 0.00 0.00 0.00
0.00 0.00 0.00 0.00 0.00 0.00 0.00 0.00 0.00 0.00 0.00 0.00 0.00 0.00 0.00 0.00 0.00 0.00 0.00 0.00 0.00 0.00 0.00 0.00 0.00 0.00 0.00 0.00 0.00 0.00 0.00 0.00 0.00 0.00 0.00 0.00 0.00 0.00 0.00 0.00 0.00 0.00 0.00
0.00 0.00 0.00 0.00 0.00 0.00 0.00 0.00 0.00 0.00 0.00 0.00 0.00 0.00 0.00 0.00 0.00 0.00 0.00 0.00 0.00 0.00 0.00 0.00 0.00 0.00 0.00 0.00 0.00 0.00 0.00 0.00 0.00 0.00 0.00 0.00 0.00 0.00 0.00 0.00 0.00 0.00 0.00
MSLP
1030.55 1030.64 1030.60 1030.77 1030.87 1030.70 1030.70 1030.49 1030.26 1030.18 1030.13 1029.84 1029.26 1028.63 1028.35 1028.12 1027.75 1027.42 1027.33 1027.04 1026.61 1026.25 1025.89 1025.58 1025.14 1024.46 1023.60 1023.29 1022.21 1021.63 1020.61 1019.79 1018.59 1013.94 1015.39 1014.64 1013.94 1013.63 1012.97 1012.76 1012.54 1012.12 1011.57
1031.31 1031.27 1031.31 1031.37 1031.24 1031.28 1031.25 1031.23 1031.11 1030.96 1030.58 1030.10 1029.67 1029.31 1028.91 1028.55 1028.21 1028.15 1027.67 1027.45 1027.09 1026.73 1026.16 1025.83 1025.13 1024.95 1024.68 1023.87 1022.94 1022.11 1021.37 1020.38 1019.35 1016.99 1015.50 1014.87 1014.58 1014.10 1013.01 1012.49 1012.21 1012.05 1011.23
1031.67 1031.86 1032.03 1032.23 1032.08 1031.84 1031.68 1031.63 1031.53 1031.14 1030.98 1030.60 1030.22 1030.06 1029.84 1029.52 1028.77 1028.33 1028.03 1027.90 1027.57 1026.95 1026.51 1025.90 1025.61 1025.25 1024.53 1024.34 1023.31 1022.65 1021.96 1020.71 1019.91 1018.65 1015.89 1015.75 1014.72 1014.20 1012.96 1012.26 1011.61 1011.27 1010.66
1032.19 1032.42 1032.62 1032.49 1032.34 1032.22 1032.01 1031.79 1031.62 1031.54 1031.62 1031.14 1030.77 1030.63 1030.36 1029.63 1029.19 1028.78 1028.44 1027.86 1027.43 1026.98 1026.59 1026.02 1025.70 1025.37 1025.08 1023.81 1022.97 1022.16 1021.23 1020.54 1019.57 1018.61 1017.04 1015.53 1014.72 1013.56 1012.99 1012.01 1010.79 1010.48 1009.78
1032.94 1032.80 1032.89 1032.84 1032.51 1032.71 1032.60 1032.29 1032.36 1032.05 1031.79 1031.61 1031.03 1030.75 1030.24 1029.54 1029.48 1029.02 1028.73 1027.78 1027.26 1027.03 1026.51 1026.10 1025.74 1025.42 1024.47 1023.99 1023.01 1021.50 1020.81 1020.04 1019.21 1018.06 1016.83 1015.32 1013.96 1013.09 1012.47 1011.52 1010.37 1009.34 1008.06
1033.23 1033.32 1033.23 1033.21 1033.28 1033.41 1033.35 1032.91 1032.61 1032.28 1031.86 1031.55 1031.03 1030.70 1030.42 1030.16 1029.72 1029.31 1028.60 1027.99 1027.46 1027.09 1026.62 1026.01 1025.23 1024.24 1023.67 1023.30 1022.49 1021.32 1020.92 1020.03 1019.13 1018.26 1016.61 1015.14 1013.39 1012.97 1011.90 1011.01 1010.12 1009.09 1006.93
1033.46 1033.45 1033.99 1034.00 1033.96 1033.89 1033.53 1033.28 1032.95 1032.40 1031.96 1031.69 1030.98 1030.79 1030.67 1030.10 1030.04 1029.42 1028.82 1028.04 1027.45 1026.96 1026.37 1025.28 1024.61 1023.72 1023.43 1022.66 1021.68 1020.72 1020.10 1019.70 1019.09 1017.92 1015.98 1014.83 1012.94 1012.45 1011.50 1010.17 1009.33 1008.42 1006.84
1033.52 1034.25 1034.33 1034.20 1034.32 1034.17 1034.02 1033.67 1032.97 1032.56 1032.34 1032.00 1031.18 1031.05 1030.72 1030.54 1030.31 1029.52 1028.73 1027.73 1027.23 1026.41 1026.02 1025.18 1024.58 1023.72 1023.31 1022.60 1021.25 1019.94 1019.21 1018.48 1017.71 1016.76 1015.55 1013.72 1012.67 1011.24 1010.84 1009.80 1008.49 1007.25 1005.97
1034.46 1034.59 1034.45 1034.48 1034.57 1034.62 1034.29 1033.71 1033.11 1032.82 1032.55 1031.99 1031.73 1031.29 1030.99 1030.56 1030.21 1029.41 1028.42 1027.52 1026.97 1026.27 1026.03 1025.42 1024.90 1023.83 1023.21 1022.44 1021.17 1019.59 1018.19 1017.16 1016.34 1015.37 1014.01 1012.51 1011.12 1010.00 1009.10 1008.26 1006.93 1006.13 1004.17
1034.83 1034.81 1034.89 1034.95 1035.00 1034.61 1034.05 1033.67 1033.54 1033.23 1032.77 1032.68 1032.24 1031.58 1031.24 1030.55 1029.74 1029.14 1028.52 1027.97 1027.33 1026.66 1025.84 1024.94 1024.41 1023.95 1022.99 1022.00 1021.13 1019.78 1018.05 1016.83 1015.50 1013.86 1012.61 1011.13 1009.75 1008.30 1007.29 1006.63 1005.67 1004.38 1003.21
1035.14 1035.14 1035.37 1035.35 1034.98 1034.51 1034.20 1034.06 1033.85 1033.55 1033.39 1032.89 1032.16 1031.50 1030.77 1030.22 1029.69 1029.61 1029.32 1028.53 1027.44 1026.33 1025.54 1024.50 1023.98 1023.50 1022.61 1021.73 1020.89 1019.96 1018.68 1017.14 1015.51 1014.12 1011.99 1009.95 1008.52 1007.15 1006.01 1005.06 1004.02 1002.99 1001.96
1035.53 1035.58 1035.41 1035.08 1034.68 1034.48 1034.51 1034.40 1034.22 1033.85 1033.23 1032.48 1031.67 1030.97 1030.54 1030.29 1030.21 1029.96 1029.43 1028.64 1027.57 1026.71 1025.44 1024.67 1023.58 1022.99 1022.20 1021.36 1020.54 1019.73 1018.63 1017.40 1015.97 1014.15 1012.10 1009.88 1008.05 1006.48 1005.43 1004.77 1003.94 1002.84 1001.85
1035.60 1035.42 1035.20 1035.10 1035.09 1035.12 1034.87 1034.49 1033.87 1033.35 1032.73 1032.16 1031.69 1031.32 1030.99 1030.72 1030.36 1029.85 1029.00 1028.26 1027.45 1026.59 1025.77 1024.76 1023.96 1023.11 1022.24 1021.33 1020.51 1019.60 1018.55 1017.48 1015.97 1014.13 1012.17 1010.10 1008.31 1006.65 1005.40 1004.61 1003.47 1002.84 1001.90
1035.52 1035.48 1035.45 1035.54 1035.39 1035.02 1034.59 1034.29 1033.82 1033.39 1032.97 1032.51 1032.04 1031.64 1031.30 1030.83 1030.27 1029.52 1028.60 1027.76 1027.00 1026.26 1025.68 1024.91 1024.33 1023.50 1022.54 1021.60 1020.43 1019.58 1018.74 1017.70 1016.35 1014.53 1012.31 1010.23 1008.25 1006.51 1005.34 1004.61 1003.65 1002.78 1002.23
1035.73 1035.61 1035.60 1035.53 1035.32 1034.86 1034.49 1034.17 1033.82 1033.39 1033.10 1032.67 1032.35 1032.03 1031.47 1030.76 1030.19 1029.37 1028.57 1027.54 1026.74 1026.09 1025.42 1024.97 1024.13 1023.29 1022.34 1021.40 1020.48 1019.83 1018.77 1017.37 1016.05 1014.54 1012.64 1010.15 1008.16 1006.61 1005.43 1004.63 1003.97 1003.23 1002.74
1035.74 1035.65 1035.58 1035.21 1034.84 1034.57 1034.34 1033.90 1033.69 1033.43 1033.10 1032.85 1032.53 1032.13 1031.46 1030.81 1029.93 1029.17 1028.20 1027.11 1026.57 1026.14 1025.59 1025.13 1024.33 1023.71 1022.90 1021.99 1020.96 1019.73 1018.94 1017.72 1016.37 1014.70 1012.62 1010.45 1008.48 1006.88 1005.73 1004.98 1004.34 1003.72 1003.23
1035.90 1035.71 1035.44 1035.29 1035.05 1034.88 1034.49 1033.97 1033.34 1032.69 1032.60 1032.31 1032.10 1031.62 1031.20 1030.54 1029.79 1028.84 1027.56 1026.96 1026.66 1026.29 1026.09 1025.48 1024.82 1023.97 1022.99 1022.28 1021.39 1020.35 1019.03 1018.02 1016.78 1014.98 1013.13 1010.81 1009.00 1007.41 1006.29 1005.40 1004.73 1004.23 1003.92
1036.18 1035.96 1035.53 1035.33 1035.16 1034.88 1034.68 1034.53 1034.34 1033.89 1033.01 1031.79 1031.18 1031.22 1030.71 1030.33 1029.65 1028.65 1027.53 1026.94 1026.65 1026.47 1026.21 1025.49 1024.77 1024.03 1023.11 1022.21 1021.40 1020.42 1019.21 1018.01 1016.69 1015.23 1013.41 1011.46 1009.61 1008.04 1006.70 1005.94 1005.36 1004.96 1004.72
1035.70 1035.47 1035.45 1035.28 1035.17 1035.18 1035.09 1034.82 1034.59 1034.18 1033.62 1032.94 1032.14 1031.37 1030.98 1030.63 1029.72 1028.41 1028.23 1028.00 1027.13 1026.33 1025.75 1025.13 1024.53 1023.82 1022.98 1022.18 1021.41 1020.48 1019.48 1018.23 1017.05 1015.51 1013.78 1012.16 1010.32 1008.76 1007.28 1006.55 1006.00 1005.73 1005.49
1035.58 1035.43 1035.40 1035.32 1035.29 1035.28 1035.17 1034.95 1034.53 1034.14 1033.67 1033.04 1032.37 1031.63 1031.05 1030.49 1029.02 1028.38 1028.35 1028.01 1027.40 1026.57 1025.66 1024.82 1024.02 1023.33 1022.60 1021.89 1021.11 1020.26 1019.22 1018.20 1016.96 1015.72 1014.32 1012.88 1011.23 1009.66 1008.14 1007.15 1006.57 1006.27 1006.04
1035.09 1035.14 1035.33 1035.37 1035.26 1035.15 1035.05 1034.75 1034.42 1033.96 1033.35 1032.71 1032.04 1031.55 1031.02 1030.14 1029.42 1028.88 1028.30 1027.79 1027.16 1026.35 1025.44 1024.59 1023.69 1022.91 1022.22 1021.53 1020.80 1019.96 1019.16 1018.19 1017.21 1016.10 1014.81 1013.43 1012.05 1010.30 1008.97 1007.89 1007.20 1006.87 1006.65
1034.81 1034.81 1034.94 1034.97 1034.98 1034.86 1034.57 1034.32 1033.88 1033.40 1032.84 1032.22 1031.47 1030.98 1030.48 1030.17 1029.39 1028.70 1028.05 1027.41 1026.76 1026.10 1025.31 1024.41 1023.47 1022.62 1021.88 1021.29 1020.60 1019.75 1018.89 1017.96 1016.97 1016.03 1014.97 1013.71 1012.48 1010.95 1009.57 1008.46 1007.79 1007.41 1007.30
1034.27 1034.37 1034.53 1034.63 1034.65 1034.56 1034.20 1033.79 1033.42 1032.93 1032.38 1031.85 1031.26 1030.55 1030.05 1029.51 1028.96 1028.34 1027.64 1026.92 1026.23 1025.51 1024.81 1024.09 1023.24 1022.31 1021.53 1020.96 1020.40 1019.59 1018.69 1017.68 1016.82 1016.03 1014.90 1013.57 1012.54 1011.33 1010.10 1009.02 1008.28 1007.87 1007.74
1034.01 1034.14 1034.20 1034.20 1034.18 1033.97 1033.59 1033.23 1032.96 1032.61 1032.14 1031.53 1030.92 1030.30 1029.68 1029.10 1028.49 1027.84 1027.15 1026.37 1025.74 1025.03 1024.31 1023.60 1022.88 1022.05 1021.21 1020.57 1019.77 1019.02 1018.35 1017.41 1016.49 1015.50 1014.51 1013.33 1012.46 1011.46 1010.43 1009.46 1008.73 1008.33 1008.16
1033.75 1033.84 1033.82 1033.67 1033.52 1033.31 1033.15 1032.79 1032.44 1032.11 1031.66 1031.15 1030.48 1029.94 1029.36 1028.83 1028.14 1027.39 1026.66 1025.96 1025.26 1024.57 1023.78 1023.06 1022.28 1021.49 1020.71 1019.99 1019.25 1018.38 1017.58 1016.66 1015.77 1014.65 1013.59 1012.57 1012.25 1011.56 1010.65 1009.85 1009.16 1008.69 1008.56
1033.39 1033.39 1033.31 1033.26 1033.11 1032.87 1032.63 1032.30 1031.91 1031.61 1031.23 1030.78 1030.26 1029.66 1029.07 1028.47 1027.78 1026.97 1026.20 1025.56 1024.87 1024.15 1023.38 1022.50 1021.49 1020.69 1019.92 1019.11 1018.23 1017.34 1016.51 1015.60 1014.65 1013.53 1012.49 1012.13 1011.83 1011.37 1010.84 1010.12 1009.53 1009.12 1008.87
Thickness
5508 5505 5502 5497 5493 5492 5489 5488 5486 5483 5480 5478 5479 5480 5478 5474 5472 5470 5465 5462 5459 5455 5449 5445 5441 5441 5441 5435 5436 5434 5434 5433 5439 5501 5472 5475 5476 5472 5474 5471 5469 5469 5471
5490 5489 5487 5483 5482 5479 5476 5472 5469 5466 5466 5466 5466 5464 5463 5461 5459 5454 5451 5445 5439 5435 5432 5428 5427 5423 5417 5418 5415 5414 5413 5411 5413 5438 5455 5454 5447 5443 5448 5450 5447 5446 5450
5480 5476 5471 5466 5464 5463 5461 5458 5455 5454 5452 5451 5449 5446 5443 5440 5439 5437 5431 5423 5418 5416 5413 5413 5408 5404 5403 5396 5395 5391 5388 5390 5389 5394 5424 5418 5422 5417 5422 5423 5427 5425 5428
5465 5460 5456 5454 5451 5448 5447 5445 5444 5441 5435 5435 5433 5429 5425 5425 5422 5417 5411 5408 5405 5402 5398 5394 5389 5384 5377 5381 5381 5377 5375 5371 5370 5370 5381 5392 5392 5396 5390 5392 5403 5400 5406
5450 5448 5444 5442 5441 5436 5433 5432 5429 5426 5424 5420 5418 5413 5410 5407 5401 5399 5395 5396 5392 5386 5382 5375 5368 5363 5362 5356 5356 5360 5354 5350 5347 5348 5352 5360 5368 5367 5362 5366 5369 5378 5389
5438 5434 5432 5429 5425 5421 5418 5417 5416 5412 5409 5405 5402 5397 5391 5386 5384 5381 5380 5378 5373 5367 5361 5356 5352 5351 5345 5339 5336 5335 5325 5320 5318 5312 5321 5326 5341 5330 5334 5334 5334 5341 5365
5426 5423 5417 5414 5412 5409 5406 5403 5399 5397 5393 5388 5386 5381 5375 5372 5367 5365 5361 5358 5354 5349 5344 5342 5337 5332 5323 5320 5318 5314 5306 5294 5283 5280 5292 5298 5309 5305 5303 5308 5308 5309 5324
5416 5410 5407 5404 5399 5395 5390 5386 5385 5381 5376 5372 5371 5365 5359 5351 5346 5344 5343 5342 5337 5333 5324 5318 5312 5308 5298 5290 5291 5293 5287 5280 5272 5264 5261 5273 5273 5282 5269 5267 5274 5277 5287
5403 5399 5396 5392 5385 5379 5375 5373 5370 5366 5361 5357 5352 5345 5338 5332 5327 5325 5325 5324 5318 5313 5301 5293 5283 5277 5269 5263 5258 5260 5266 5264 5257 5249 5244 5243 5245 5246 5245 5233 5241 5234 5253
5392 5388 5382 5376 5370 5366 5363 5360 5355 5349 5344 5334 5328 5325 5318 5314 5312 5306 5301 5295 5292 5284 5276 5270 5260 5249 5244 5238 5228 5225 5228 5230 5231 5234 5231 5224 5218 5215 5212 5205 5201 5203 5211
5378 5373 5365 5359 5355 5354 5350 5343 5336 5330 5322 5317 5312 5308 5303 5298 5290 5279 5268 5262 5262 5261 5256 5254 5244 5231 5223 5215 5203 5191 5184 5182 5186 5181 5187 5196 5190 5187 5184 5185 5186 5188 5194
5361 5356 5352 5349 5346 5340 5332 5325 5317 5312 5308 5304 5299 5293 5284 5274 5263 5254 5246 5239 5237 5231 5232 5226 5222 5211 5201 5191 5178 5164 5151 5141 5137 5138 5141 5152 5158 5164 5164 5162 5164 5170 5177
5351 5347 5343 5337 5329 5322 5315 5310 5307 5301 5295 5289 5282 5273 5261 5251 5243 5236 5230 5222 5214 5207 5201 5195 5189 5183 5172 5163 5150 5136 5122 5111 5107 5109 5113 5121 5129 5138 5143 5145 5151 5154 5164
5340 5334 5328 5320 5313 5309 5304 5297 5290 5283 5275 5268 5260 5251 5241 5231 5222 5215 5209 5203 5194 5187 5178 5170 5158 5149 5139 5129 5122 5111 5097 5087 5082 5085 5094 5102 5111 5121 5128 5130 5137 5145 5152
5327 5321 5314 5307 5300 5295 5288 5281 5273 5265 5256 5248 5238 5228 5220 5210 5200 5193 5185 5179 5170 5163 5156 5145 5135 5127 5119 5110 5101 5087 5080 5078 5074 5072 5077 5091 5101 5109 5115 5119 5125 5132 5139
5316 5309 5301 5296 5289 5281 5273 5265 5254 5244 5233 5223 5214 5205 5198 5188 5182 5174 5168 5161 5150 5140 5132 5119 5113 5101 5092 5083 5076 5075 5066 5062 5059 5061 5068 5079 5089 5098 5104 5109 5115 5120 5127
5301 5294 5287 5278 5271 5262 5254 5246 5238 5229 5218 5206 5197 5189 5180 5172 5163 5157 5155 5146 5131 5120 5107 5097 5087 5080 5074 5063 5057 5053 5053 5047 5045 5049 5054 5068 5078 5087 5094 5100 5105 5109 5113
5284 5275 5270 5262 5253 5244 5235 5226 5216 5207 5199 5194 5184 5174 5166 5154 5145 5139 5135 5128 5118 5101 5087 5079 5071 5062 5055 5050 5044 5041 5039 5037 5036 5038 5046 5056 5066 5076 5085 5090 5093 5095 5098
5272 5264 5253 5244 5235 5224 5214 5205 5194 5185 5177 5169 5163 5155 5145 5135 5126 5118 5106 5095 5092 5086 5076 5066 5057 5049 5042 5036 5032 5028 5025 5025 5024 5028 5036 5044 5055 5064 5075 5079 5082 5082 5085
5254 5244 5235 5227 5217 5205 5195 5184 5175 5166 5157 5149 5141 5134 5127 5121 5118 5106 5090 5078 5069 5063 5059 5053 5046 5038 5032 5027 5024 5020 5017 5015 5016 5018 5023 5031 5041 5051 5062 5068 5072 5073 5075
5241 5231 5219 5208 5198 5187 5176 5167 5158 5150 5142 5134 5125 5114 5105 5099 5091 5080 5071 5061 5053 5047 5043 5038 5032 5026 5021 5018 5015 5012 5008 5006 5005 5007 5012 5020 5027 5039 5049 5057 5061 5062 5064
5226 5215 5203 5192 5181 5170 5161 5152 5144 5136 5127 5119 5113 5102 5090 5078 5071 5062 5054 5045 5038 5030 5023 5019 5017 5013 5010 5006 5003 5002 5000 4999 4998 4999 5003 5010 5017 5027 5037 5046 5050 5053 5053
5210 5200 5189 5177 5165 5154 5145 5137 5128 5120 5112 5103 5094 5087 5076 5065 5055 5046 5039 5032 5025 5018 5010 5004 5001 5000 4998 4994 4990 4990 4990 4991 4991 4991 4995 5002 5009 5016 5025 5034 5039 5043 5044
5196 5185 5174 5163 5152 5142 5133 5124 5112 5102 5093 5084 5075 5066 5057 5048 5040 5032 5025 5019 5011 5003 4996 4992 4988 4986 4985 4983 4982 4981 4980 4981 4982 4985 4988 4995 5001 5007 5014 5022 5028 5032 5035
5180 5169 5158 5149 5138 5129 5118 5108 5098 5087 5076 5066 5057 5047 5038 5029 5023 5017 5010 5004 4997 4990 4986 4981 4976 4973 4971 4969 4969 4970 4971 4973 4975 4979 4984 4990 4993 4998 5004 5010 5017 5022 5025
5165 5154 5144 5133 5123 5114 5104 5094 5083 5070 5059 5047 5037 5028 5020 5013 5007 5002 4995 4988 4981 4977 4972 4967 4964 4960 4957 4956 4957 4959 4962 4966 4970 4975 4981 4984 4986 4990 4994 5000 5006 5011 5015